Lid_Strength_Index
1 1 1 1 1 1 1 1 1 1 1 1 1 1 1 1 0 0 -0 -0 -0 -0 -0 -0 0 0 3 8 7 2 0 1 1 2 4 5 6 8 10 9 8 10 9 7 7 7 7
1 1 1 1 1 1 1 1 1 1 1 1 1 1 1 1 1 0 0 0 0 -0 -0 -0 -0 0 5 11 3 1 2 2 2 3 4 5 6 5 8 9 10 8 8 8 7 7 7
1 1 1 1 1 1 1 1 1 0 0 1 1 1 1 1 1 1 0 0 0 0 0 -0 -0 1 6 9 3 2 2 3 2 3 5 4 4 6 7 9 7 8 11 9 9 8 9
1 0 0 0 0 0 1 1 1 1 0 -0 1 1 1 2 1 1 1 1 1 0 0 0 0 4 10 3 3 3 3 3 2 2 3 3 4 6 7 6 8 11 11 14 9 9 8
0 0 0 0 0 0 1 1 1 1 1 0 0 1 1 1 2 2 1 1 1 1 0 -0 4 6 9 2 5 4 3 4 3 3 3 2 5 7 8 11 13 12 15 15 12 8 9
1 1 1 1 1 1 1 1 1 1 1 1 1 1 1 1 1 1 1 2 2 1 1 1 3 9 8 8 5 4 3 4 5 5 5 6 8 11 11 13 18 17 15 14 14 10 10
-0 -0 -0 0 0 0 1 1 1 2 2 2 2 2 1 1 1 1 4 8 10 11 7 9 9 9 8 5 4 5 4 5 5 7 12 9 12 14 12 12 11 13 14 15 12 9 11
0 0 1 1 1 1 2 2 2 3 3 4 4 3 2 1 1 1 6 9 10 8 12 8 8 8 6 6 9 6 3 8 8 12 10 12 14 11 10 10 11 12 14 14 11 9 11
1 1 2 2 2 3 4 4 4 4 4 4 4 4 3 2 1 5 7 8 6 6 12 10 8 9 8 7 9 9 5 8 10 12 12 14 13 9 10 11 12 13 14 14 14 11 11
2 3 4 5 4 4 4 4 5 4 4 5 5 5 4 3 6 6 8 5 5 6 16 13 11 9 7 8 11 6 5 8 11 12 13 13 11 11 11 12 11 16 11 12 13 14 18
4 4 5 5 5 5 5 5 5 5 5 5 5 5 4 4 7 8 7 5 6 9 22 12 11 7 8 11 11 9 5 8 12 13 13 15 13 12 13 12 10 13 11 12 13 15 16
5 5 6 5 5 5 5 5 5 5 5 5 5 5 4 6 8 7 6 6 8 15 20 14 11 11 11 11 11 9 9 8 8 11 12 13 11 11 11 11 10 9 12 13 13 15 20
6 6 6 6 5 6 6 6 6 6 5 5 5 5 5 4 9 6 6 9 17 19 13 15 14 12 13 13 12 11 12 13 14 17 17 14 14 12 11 13 11 11 15 19 21 22 20
6 6 6 6 6 6 6 6 6 6 6 5 5 5 5 4 6 6 7 14 21 16 16 13 14 14 15 13 14 13 15 15 14 15 17 18 17 12 11 13 15 13 14 19 23 22 20
6 6 6 6 6 6 6 6 6 6 5 5 6 8 7 6 5 6 11 20 18 17 14 14 15 17 16 14 15 15 15 15 14 14 17 18 17 12 11 11 12 15 16 13 16 19 21
6 6 6 6 6 6 6 6 6 6 5 4 7 6 7 5 5 8 12 15 15 10 11 13 16 15 17 16 15 16 15 13 13 13 14 16 18 13 12 11 12 14 13 17 18 21 22
7 6 6 6 6 6 6 6 5 5 4 4 10 10 7 5 7 11 17 16 12 10 10 12 15 15 15 16 15 16 15 13 12 13 13 14 16 15 13 14 15 15 16 16 16 17 20
7 6 6 6 6 6 6 5 5 4 4 7 12 14 8 7 13 14 14 12 9 11 10 11 12 13 14 14 15 15 14 13 11 11 14 13 15 17 15 13 12 13 14 15 18 19 18
6 6 6 6 5 5 5 5 5 4 4 8 13 13 7 9 16 15 12 11 10 10 10 10 11 11 11 13 15 15 14 10 10 11 13 12 16 20 17 14 13 14 14 14 15 17 18
5 6 6 6 6 6 6 6 6 5 5 8 11 15 13 11 11 15 14 13 13 10 10 10 11 11 12 13 12 14 13 11 10 10 6 10 15 16 18 17 15 15 14 14 15 19 17
6 6 6 6 6 6 6 6 6 6 6 10 13 14 14 17 16 15 14 13 13 16 13 12 12 14 14 14 13 14 13 13 11 9 10 12 16 16 15 13 14 14 15 14 16 14 17
6 6 6 6 6 6 6 6 6 5 6 12 15 16 15 16 15 16 16 17 15 16 16 16 15 15 15 16 15 17 14 14 14 12 12 11 15 15 15 13 13 14 14 13 14 14 15
6 6 6 5 5 5 6 6 5 5 7 12 12 12 14 16 17 17 17 16 16 15 14 13 14 15 16 15 13 13 12 12 13 14 14 13 14 15 17 14 15 16 14 13 13 15 15
6 6 5 5 5 5 5 5 5 5 6 10 10 12 15 18 16 16 16 15 16 15 15 13 13 15 13 11 12 12 13 13 13 13 12 14 13 13 16 15 20 14 12 11 12 12 14
5 5 5 5 4 5 4 5 5 5 5 10 11 12 14 18 16 16 16 16 15 15 16 15 13 12 11 13 16 18 18 16 15 13 13 12 13 14 17 17 14 13 11 12 13 13 11
5 5 5 5 5 5 5 5 5 5 5 9 10 10 13 19 18 15 16 15 17 17 16 14 11 11 12 14 15 20 21 19 19 16 12 12 12 13 14 18 19 15 12 10 10 15 10
5 5 5 5 5 4 4 4 4 4 5 7 9 8 10 14 14 14 15 16 14 15 16 15 15 13 11 15 17 19 20 17 20 20 18 16 15 15 15 17 14 12 12 10 15 15 9
5 5 5 5 4 5 5 5 5 5 4 6 8 8 9 12 12 11 11 13 13 13 16 14 15 15 14 17 16 16 17 17 17 15 17 17 17 16 14 17 18 13 12 14 12 10 9
5 5 5 5 5 5 5 4 4 4 4 4 8 8 7 10 11 9 9 8 9 10 11 12 13 13 12 15 17 18 17 17 17 20 13 16 13 15 14 13 11 11 13 10 10 10 10